Other Public Products
Issued by NWS Grand Forks, ND

Home | Current Version | Previous Version | Graphics & Text | Print | Product List | Glossary On
Versions: 1 2 3 4 5 6 7 8 9 10 11 12 13 14 15 16 17 18 19 20 21 22 23 24 25 26 27 28 29 30 31 32 33 34 35 36 37 38 39 40 41 42 43 44 45 46 47 48 49 50
000
FPUS83 KFGF 300331
OPUFGF
PRAIRIE TO PINES WEATHER ROUNDUP
NATIONAL WEATHER SERVICE EASTERN NORTH DAKOTA/GRAND FORKS ND
1000 PM CDT MON AUG 29 2016

 **SATELLITE DATA USED TO AUGMENT SKY COVER AT AUTOMATED STATIONS**
 *****  WEATHER ACROSS EASTERN NORTH DAKOTA  *****

CITY           SKY/WX    TMP DP  RH WIND       PRES   REMARKS
GRAND FORKS    CLEAR     58  52  80 NW5       30.18R
GRAND FORKS AF CLEAR     61  52  71 NW6       30.19R
GRAND CITY NWS   N/A     59 N/A N/A N5          N/A
BUXTON           N/A    N/A N/A N/A CALM        N/A
DEVILS LAKE    CLEAR     60  52  74 N3        30.24R
FARGO          CLEAR     67  57  70 NW9       30.18R
WAHPETON ARPT  CLEAR     66  61  82 N7        30.18S
$$

 *****  WEATHER ACROSS CENTRAL AND WESTERN NORTH DAKOTA  *****

CITY           SKY/WX    TMP DP  RH WIND       PRES   REMARKS
JAMESTOWN      CLEAR     60  54  80 N6        30.22R
BISMARCK       CLEAR     64  49  57 NE6       30.24R
MINOT          CLEAR     61  46  57 CALM      30.23R
MINOT AFB      PTCLDY    57  46  67 S2        30.23R
GARRISON         N/A     61  46  57 CALM      30.25R
WILLISTON      CLEAR     70  38  31 E7        30.22R
DICKINSON      CLEAR     62  45  53 E9        30.25R
HETTINGER      CLEAR     67  50  54 E10       30.27R
$$

 *****  OTHER OBSERVATIONS NORTHEAST NORTH DAKOTA  *****

CITY           SKY/WX    TMP DP  RH WIND       PRES   REMARKS
WALHALLA       FAIR      61  57  88 W3        30.21R
LANGDON        FAIR      54  46  76 SW3       30.24R HAZE
CAVALIER       FAIR      55  50  82 W6        30.20S
GRAFTON        FAIR      63  55  77 W6        30.21S
CANDO          FAIR      54  52  94 CALM      30.26R
FORT TOTTEN    NOT AVBL
ROLLA          FAIR      50  48  93 W7        30.25S
RUGBY          FAIR      57  50  77 CALM      30.24S
 ***** THE ABOVE OBSERVATIONS ARE NON NWS ARE NOT QUALITY
        CONTROLLED AND MAY MIS-REPORT RAIN FOR SNOW...
$$

 *****  OTHER OBSERVATIONS SOUTHEAST NORTH DAKOTA *****

CITY           SKY/WX    TMP DP  RH WIND       PRES   REMARKS
COOPERSTOWN    NOT AVBL
VALLEY CITY    FAIR      61  55  82 N5        30.24R
OAKES            N/A    N/A N/A N/A MISG        N/A
GWINNER        FAIR      64  59  82 N6        30.22R
SHEYENNE NWR     N/A     66  59  78 N3        29.95S
BUFFALO          N/A     60  52  76 CALM        N/A
WYNDMERE         N/A     64  63  94 NW3         N/A
 ***** THE ABOVE OBSERVATIONS ARE NON NWS ARE NOT QUALITY
       CONTROLLED AND MAY MIS-REPORT RAIN FOR SNOW...
$$

  *****  WEATHER ACROSS NORTHERN MINNESOTA  *****

CITY           SKY/WX    TMP DP  RH WIND       PRES   REMARKS
FLAG ISLAND    CLEAR     64  54  68 NW6       30.15R
WARROAD        CLEAR     59  54  82 W3        30.18R
ROSEAU         CLEAR     59  54  82 CALM      30.18R
HALLOCK        CLEAR     57  52  82 NW3       30.18S
THF RVR FALLS  CLEAR     60  54  80 NW7       30.19R
HALSTAD          N/A     60  55  85 N8          N/A
FOSSTON        CLEAR     57  54  88 CALM      30.20R
BAUDETTE       CLEAR     60  55  83 W7        30.15R
WASKISH        CLEAR     64  57  77 NW7       30.17R
CROOKSTON      CLEAR     61  54  77 N7        30.19R
$$
  *****  WEATHER ACROSS CENTRAL AND WEST MINNESOTA  *****

CITY           SKY/WX    TMP DP  RH WIND       PRES   REMARKS
BEMIDJI        CLEAR     61  57  88 W5        30.18R
PARK RAPIDS    CLEAR     66  63  90 NW3       30.18R
WADENA         NOT AVBL
DETROIT LAKES  CLEAR     66  63  88 N3        30.20R
MOORHEAD       CLEAR     64  55  72 N8        30.19R
FERGUS FALLS   CLEAR     66  66 100 CALM      30.19S
ELBOW LAKE     FAIR      69  67  91 N3        30.18S
MORRIS MN      CLOUDY    73  70  88 N6        30.14F
STAPLES        CLOUDY    68  64  88 CALM      30.18R
WHEATON        CLOUDY    72  66  83 N5        30.19S
$$
  *****  WEATHER ELSEWHERE ACROSS MINNESOTA  *****

CITY           SKY/WX    TMP DP  RH WIND       PRES   REMARKS
DULUTH         CLOUDY    70  66  87 W15       30.14S
INTRNTL FALLS  CLEAR     63  60  90 NW6       30.12R
ELY            MOCLDY    66  66 100 CALM      30.13S
CLOQUET        CLOUDY    66  63  88 S3        30.15F
BRAINERD       CLOUDY    74  68  81 N6        30.16R
HIBBING        CLEAR     62  62 100 W3        30.15R FOG
ALEXANDRIA     CLOUDY    73  68  84 N7        30.19R
SAINT CLOUD    TSTM      66  66 100 E21G29    30.14R VSB 1
MINNEAPOLIS    MOCLDY    79  68  69 SW10      30.13F
$$

  *****  WEATHER ACROSS SOUTH DAKOTA  *****

CITY           SKY/WX    TMP DP  RH WIND       PRES   REMARKS
SIOUX FALLS    CLOUDY    75  69  81 CALM      30.20R
BROOKINGS      PTCLDY    75  69  81 S5        30.16R
WATERTOWN      CLOUDY    71  63  75 CALM      30.18F
HURON          PTCLDY    77  68  73 SE3       30.15R
SISSETON         N/A     69  66  90 N5        30.17R
ABERDEEN       CLOUDY    69  61  75 NE7       30.20R
MITCHELL       PTCLDY    73  66  78 SE7       30.15R
PIERRE         PTCLDY    75  66  73 NE12      30.15R
MOBRIDGE       CLOUDY    72  52  49 NE10      30.20R
RAPID CITY     PTCLDY    69  60  73 E10       30.25R
$$

  *****  SOME WEATHER IN NEARBY STATES *****

CITY           SKY/WX    TMP DP  RH WIND       PRES   REMARKS
GLASGOW MT     CLEAR     71  45  39 E13       30.14R
GREAT FALLS MT PTCLDY    73  42  32 E12       30.09R
CHEYENNE WY    CLOUDY    63  44  50 S7        30.39R
SCOTTSBLUFF NE PTCLDY    68  60  75 E8        30.26R
OMAHA NE       RAIN      71  67  87 SW5       30.21F
DES MOINES IA  MOCLDY    74  71  91 E6        30.18R
DAVENPORT IA   CLOUDY    71  70  96 CALM      30.17F FOG
CHICAGO IL     CLOUDY    74  72  93 CALM      30.17S
EAU CLAIRE WI  CLEAR     75  72  90 S6        30.15S
LA CROSSE WI   PTCLDY    75  73  93 E3        30.16S
$$

  *****  SOME NATIONAL WEATHER *****

CITY           SKY/WX    TMP DP  RH WIND       PRES   REMARKS
LA GUARDIA NY  FAIR      80  57  45 N12       30.12S
RALEIGH NC     FAIR      74  64  71 N3        30.10S
ATLANTA GA     FAIR      82  66  58 NE12      30.09S
NEW ORLEANS LA MOCLDY    85  75  72 E6        29.96R HX  93
OKLAHOMA CITY  FAIR      78  68  71 NE9       30.12R
ALBUQUERQUE NM PTCLDY    68  46  45 E23G32    30.26R
SALT LAKE CITY MOCLDY    81  38  21 W6        30.12R
LOS ANGELES CA PTCLDY    70  61  73 W6        29.85R
BOISE ID       CLOUDY    85  33  15 CALM      29.99S
SEATTLE WA     PTCLDY    74  54  49 SW6       29.98S
$$

*** WEATHER ACROSS MANITOBA...SASKATCHEWAN AND ONTARIO ***
                ***ONTARIO***

CITY           SKY/WX    TMP DP  RH WIND       PRES   REMARKS
GERALDTON      MOCLDY    61  61 100 SW3       30.03F
THUNDER BAY    PTCLDY    64  63  94 NW2       30.05S
SIOUX LOOKOUT  CLEAR     61  57  88 NW7       30.08S
TORONTO        PTCLDY    72  57  60 NW8       30.20S
BIG TROUT LK   CLOUDY    61  50  67 NW9G21    29.97S
PICKLE LAKE    NOT AVBL
DRYDEN         CLEAR     61  55  82 W10       30.11S
KENORA         CLEAR     61  54  77 NW6       30.15S
$$
                *** MANITOBA***

CITY           SKY/WX    TMP DP  RH WIND       PRES   REMARKS
BRANDON        PTCLDY    54  46  76 NW7       30.22R
DAUPHIN        CLEAR     55  48  76 W10       30.19R
ISLAND LAKE    CLOUDY    61  52  72 W16G22    30.02S
PILOT MOUND      N/A     54  46  76 NW1         N/A
THE PAS        PTCLDY    59  46  63 NW10      30.14R
THOMPSON       LGT RAIN  55  50  82 W14G22    29.99S
WINNIPEG       PTCLDY    57  48  72 NW3       30.18R
LYNN LAKE      CLOUDY    54  50  87 MISG      30.05S
CHURCHILL      LGT RAIN  48  48 100 N20       29.88R VSB 1/8
GILLAM         CLOUDY    55  54  94 SW9       29.89S
$$
                ***SASKATCHEWAN***

CITY           SKY/WX    TMP DP  RH WIND       PRES   REMARKS
ESTEVAN        PTCLDY    59  46  63 E3        30.24R
KINDERSLEY     PTCLDY    57  50  77 E9        30.18R
LLOYDMINSTER   PTCLDY    50  45  81 NE7       30.22S
PRINCE ALBERT  MOCLDY    52  45  76 NW2       30.23R
REGINA         MOCLDY    59  46  63 NE9       30.24R
YORKTON        CLEAR     57  46  67 W6        30.23R  C1F1C2F2C3F3C4F4C5F5C6F6C7F7C8F8C9F9CaFaCbFbCcFcCdFdCe!



USA.gov is the U.S. government's official web portal to all federal, state and local government web resources and services.